Time,TemperatureF,DewpointF,PressureIn,WindDirection,WindDirectionDegrees,WindSpeedMPH,WindSpeedGustMPH,Humidity,HourlyPrecipIn,Conditions,Clouds,dailyrainin,SoftwareType,DateUTC
2013-03-17 00:02:00,46.3,38.5,29.83,East,79,7.0,11.0,74,0.00,,,0.00,LWC2 V0.39 B123,2013-03-17 06:02:00,
2013-03-17 00:07:00,46.2,38.4,29.83,ENE,64,4.0,12.0,74,0.00,,,0.00,LWC2 V0.39 B123,2013-03-17 06:07:00,
2013-03-17 00:12:00,46.2,38.4,29.83,East,81,5.0,8.0,74,0.00,,,0.00,LWC2 V0.39 B123,2013-03-17 06:12:00,
2013-03-17 00:17:00,46.1,38.3,29.83,ENE,75,5.0,9.0,74,0.00,,,0.00,LWC2 V0.39 B123,2013-03-17 06:17:00,
2013-03-17 00:22:00,46.0,38.2,29.83,ENE,78,9.0,9.0,74,0.00,,,0.00,LWC2 V0.39 B123,2013-03-17 06:22:00,
2013-03-17 00:27:00,45.8,38.0,29.84,NNE,26,4.0,13.0,74,0.00,,,0.00,LWC2 V0.39 B123,2013-03-17 06:27:00,
2013-03-17 00:32:00,45.7,37.9,29.84,ENE,58,7.0,11.0,74,0.00,,,0.00,LWC2 V0.39 B123,2013-03-17 06:32:00,
2013-03-17 00:37:00,45.6,38.1,29.84,ENE,57,4.0,8.0,75,0.00,,,0.00,LWC2 V0.39 B123,2013-03-17 06:37:00,
2013-03-17 00:42:00,45.4,37.9,29.83,ENE,75,6.0,10.0,75,0.00,,,0.00,LWC2 V0.39 B123,2013-03-17 06:42:00,
2013-03-17 00:47:00,45.2,38.1,29.84,East,81,5.0,7.0,76,0.00,,,0.00,LWC2 V0.39 B123,2013-03-17 06:47:00,
2013-03-17 00:52:00,45.1,38.0,29.84,ESE,104,6.0,9.0,76,0.00,,,0.00,LWC2 V0.39 B123,2013-03-17 06:52:00,
2013-03-17 00:57:00,44.9,37.8,29.83,East,88,9.0,13.0,76,0.00,,,0.00,LWC2 V0.39 B123,2013-03-17 06:57:00,
2013-03-17 01:02:00,44.7,37.9,29.82,ENE,71,4.0,9.0,77,0.00,,,0.00,LWC2 V0.39 B123,2013-03-17 07:02:00,
2013-03-17 01:07:00,44.6,37.8,29.82,East,79,4.0,6.0,77,0.00,,,0.00,LWC2 V0.39 B123,2013-03-17 07:07:00,
2013-03-17 01:12:00,44.4,37.6,29.82,ENE,67,4.0,7.0,77,0.00,,,0.00,LWC2 V0.39 B123,2013-03-17 07:12:00,
2013-03-17 01:17:00,44.2,37.5,29.82,ENE,77,5.0,13.0,77,0.00,,,0.00,LWC2 V0.39 B123,2013-03-17 07:17:00,
2013-03-17 01:22:00,44.1,37.7,29.83,East,79,6.0,8.0,78,0.00,,,0.00,LWC2 V0.39 B123,2013-03-17 07:22:00,
2013-03-17 01:27:00,44.0,37.6,29.82,East,89,7.0,11.0,78,0.00,,,0.00,LWC2 V0.39 B123,2013-03-17 07:27:00,
2013-03-17 01:32:00,43.9,37.5,29.82,East,86,5.0,8.0,78,0.00,,,0.00,LWC2 V0.39 B123,2013-03-17 07:32:00,
2013-03-17 01:37:00,43.9,37.8,29.82,ENE,73,2.0,6.0,79,0.00,,,0.00,LWC2 V0.39 B123,2013-03-17 07:37:00,
2013-03-17 01:43:00,43.7,37.3,29.82,North,4,6.0,8.0,78,0.00,,,0.00,LWC2 V0.39 B123,2013-03-17 07:43:00,
2013-03-17 01:48:00,43.6,37.2,29.82,ENE,72,12.0,12.0,78,0.00,,,0.00,LWC2 V0.39 B123,2013-03-17 07:48:00,
2013-03-17 01:53:00,43.5,37.4,29.82,NNE,18,7.0,14.0,79,0.00,,,0.00,LWC2 V0.39 B123,2013-03-17 07:53:00,
2013-03-17 01:58:00,43.4,37.3,29.81,ENE,58,7.0,11.0,79,0.00,,,0.00,LWC2 V0.39 B123,2013-03-17 07:58:00,
2013-03-17 02:03:00,43.4,37.3,29.83,ENE,65,3.0,11.0,79,0.00,,,0.00,LWC2 V0.39 B123,2013-03-17 08:03:00,
2013-03-17 02:08:00,43.4,37.3,29.83,ENE,65,8.0,12.0,79,0.00,,,0.00,LWC2 V0.39 B123,2013-03-17 08:08:00,
2013-03-17 02:13:00,43.4,37.3,29.83,ENE,63,7.0,11.0,79,0.00,,,0.00,LWC2 V0.39 B123,2013-03-17 08:13:00,
2013-03-17 02:18:00,43.4,37.3,29.83,ENE,63,6.0,11.0,79,0.00,,,0.00,LWC2 V0.39 B123,2013-03-17 08:18:00,
2013-03-17 02:23:00,43.4,37.3,29.83,East,79,4.0,9.0,79,0.00,,,0.00,LWC2 V0.39 B123,2013-03-17 08:23:00,
2013-03-17 02:28:00,43.4,37.3,29.83,ENE,67,5.0,8.0,79,0.00,,,0.00,LWC2 V0.39 B123,2013-03-17 08:28:00,
2013-03-17 02:33:00,43.4,37.3,29.84,NNE,22,5.0,10.0,79,0.00,,,0.00,LWC2 V0.39 B123,2013-03-17 08:33:00,
2013-03-17 02:38:00,43.2,37.1,29.84,East,83,6.0,9.0,79,0.00,,,0.00,LWC2 V0.39 B123,2013-03-17 08:38:00,
2013-03-17 02:43:00,43.1,37.0,29.84,ENE,67,4.0,10.0,79,0.00,,,0.00,LWC2 V0.39 B123,2013-03-17 08:43:00,
2013-03-17 02:48:00,43.1,37.0,29.83,ENE,71,3.0,12.0,79,0.00,,,0.00,LWC2 V0.39 B123,2013-03-17 08:48:00,
2013-03-17 02:53:00,43.0,36.9,29.84,ENE,77,7.0,16.0,79,0.00,,,0.00,LWC2 V0.39 B123,2013-03-17 08:53:00,
2013-03-17 02:58:00,42.9,36.8,29.84,ENE,75,6.0,10.0,79,0.00,,,0.00,LWC2 V0.39 B123,2013-03-17 08:58:00,
2013-03-17 03:03:00,42.9,37.2,29.84,ENE,67,7.0,8.0,80,0.00,,,0.00,LWC2 V0.39 B123,2013-03-17 09:03:00,
2013-03-17 03:08:00,42.8,36.7,29.84,NNE,12,14.0,15.0,79,0.00,,,0.00,LWC2 V0.39 B123,2013-03-17 09:08:00,
2013-03-17 03:13:00,42.6,36.6,29.84,East,88,6.0,12.0,79,0.00,,,0.00,LWC2 V0.39 B123,2013-03-17 09:13:00,
2013-03-17 03:18:00,42.4,36.7,29.83,NE,53,9.0,9.0,80,0.00,,,0.00,LWC2 V0.39 B123,2013-03-17 09:18:00,
2013-03-17 03:23:00,42.3,36.6,29.83,ENE,71,9.0,9.0,80,0.00,,,0.00,LWC2 V0.39 B123,2013-03-17 09:23:00,
2013-03-17 03:28:00,42.2,36.5,29.84,ENE,67,4.0,10.0,80,0.00,,,0.00,LWC2 V0.39 B123,2013-03-17 09:28:00,
2013-03-17 03:33:00,42.0,36.6,29.84,NE,53,8.0,11.0,81,0.00,,,0.00,LWC2 V0.39 B123,2013-03-17 09:33:00,
2013-03-17 03:38:00,41.8,36.4,29.83,ENE,65,9.0,14.0,81,0.00,,,0.00,LWC2 V0.39 B123,2013-03-17 09:38:00,
2013-03-17 03:43:00,41.7,36.6,29.83,East,79,13.0,13.0,82,0.00,,,0.00,LWC2 V0.39 B123,2013-03-17 09:43:00,
2013-03-17 03:48:00,41.6,36.5,29.83,ENE,63,9.0,9.0,82,0.00,,,0.00,LWC2 V0.39 B123,2013-03-17 09:48:00,
2013-03-17 03:53:00,41.5,36.4,29.83,ENE,60,7.0,9.0,82,0.00,,,0.00,LWC2 V0.39 B123,2013-03-17 09:53:00,
2013-03-17 03:58:00,41.5,36.4,29.83,ENE,60,4.0,10.0,82,0.00,,,0.00,LWC2 V0.39 B123,2013-03-17 09:58:00,
2013-03-17 04:03:00,41.4,36.3,29.83,ENE,72,5.0,13.0,82,0.00,,,0.00,LWC2 V0.39 B123,2013-03-17 10:03:00,
2013-03-17 04:08:00,41.3,36.2,29.83,East,79,6.0,11.0,82,0.00,,,0.00,LWC2 V0.39 B123,2013-03-17 10:08:00,
2013-03-17 04:14:00,41.2,36.4,29.84,ENE,71,4.0,10.0,83,0.00,,,0.00,LWC2 V0.39 B123,2013-03-17 10:14:00,
2013-03-17 04:19:00,41.2,36.1,29.83,East,99,10.0,14.0,82,0.00,,,0.00,LWC2 V0.39 B123,2013-03-17 10:19:00,
2013-03-17 04:24:00,41.1,36.3,29.84,NE,44,9.0,10.0,83,0.00,,,0.00,LWC2 V0.39 B123,2013-03-17 10:24:00,
2013-03-17 04:29:00,41.1,36.3,29.84,NE,56,6.0,10.0,83,0.00,,,0.00,LWC2 V0.39 B123,2013-03-17 10:29:00,
2013-03-17 04:34:00,41.1,36.3,29.84,ENE,77,10.0,13.0,83,0.00,,,0.00,LWC2 V0.39 B123,2013-03-17 10:34:00,
2013-03-17 04:39:00,41.1,36.3,29.84,ENE,67,4.0,8.0,83,0.00,,,0.00,LWC2 V0.39 B123,2013-03-17 10:39:00,
2013-03-17 04:44:00,41.2,36.4,29.84,East,79,5.0,8.0,83,0.00,,,0.00,LWC2 V0.39 B123,2013-03-17 10:44:00,
2013-03-17 04:49:00,41.2,36.4,29.84,East,81,8.0,8.0,83,0.00,,,0.00,LWC2 V0.39 B123,2013-03-17 10:49:00,
2013-03-17 04:54:00,41.2,36.4,29.84,ENE,73,8.0,10.0,83,0.00,,,0.00,LWC2 V0.39 B123,2013-03-17 10:54:00,
2013-03-17 04:59:00,41.2,36.4,29.84,ENE,78,6.0,7.0,83,0.00,,,0.00,LWC2 V0.39 B123,2013-03-17 10:59:00,
2013-03-17 05:04:00,41.1,36.3,29.84,NE,36,7.0,11.0,83,0.00,,,0.00,LWC2 V0.39 B123,2013-03-17 11:04:00,
2013-03-17 05:09:00,40.9,36.4,29.84,East,79,7.0,9.0,84,0.00,,,0.00,LWC2 V0.39 B123,2013-03-17 11:09:00,
2013-03-17 05:14:00,40.8,36.3,29.85,ENE,78,4.0,7.0,84,0.00,,,0.00,LWC2 V0.39 B123,2013-03-17 11:14:00,
2013-03-17 05:19:00,40.8,36.3,29.85,ENE,76,5.0,7.0,84,0.00,,,0.00,LWC2 V0.39 B123,2013-03-17 11:19:00,
2013-03-17 05:24:00,40.7,36.2,29.85,ENE,64,4.0,6.0,84,0.00,,,0.00,LWC2 V0.39 B123,2013-03-17 11:24:00,
2013-03-17 05:29:00,40.6,36.2,29.85,East,84,8.0,10.0,84,0.00,,,0.00,LWC2 V0.39 B123,2013-03-17 11:29:00,
2013-03-17 05:34:00,40.4,36.3,29.85,East,94,4.0,12.0,85,0.00,,,0.00,LWC2 V0.39 B123,2013-03-17 11:34:00,
2013-03-17 05:39:00,40.2,36.1,29.85,East,79,4.0,10.0,85,0.00,,,0.00,LWC2 V0.39 B123,2013-03-17 11:39:00,
2013-03-17 05:44:00,40.0,36.2,29.85,ENE,60,3.0,7.0,86,0.00,,,0.00,LWC2 V0.39 B123,2013-03-17 11:44:00,
2013-03-17 05:49:00,39.8,36.3,29.85,East,84,6.0,9.0,87,0.00,,,0.00,LWC2 V0.39 B123,2013-03-17 11:49:00,
2013-03-17 05:54:00,39.7,36.2,29.85,ENE,72,6.0,7.0,87,0.00,,,0.00,LWC2 V0.39 B123,2013-03-17 11:54:00,
2013-03-17 05:59:00,39.7,36.4,29.85,East,81,6.0,8.0,88,0.00,,,0.00,LWC2 V0.39 B123,2013-03-17 11:59:00,
2013-03-17 06:04:00,39.7,36.4,29.85,East,82,7.0,10.0,88,0.00,,,0.00,LWC2 V0.39 B123,2013-03-17 12:04:00,
2013-03-17 06:09:00,39.6,36.3,29.85,East,101,4.0,8.0,88,0.00,,,0.00,LWC2 V0.39 B123,2013-03-17 12:09:00,
2013-03-17 06:14:00,39.6,36.3,29.85,SE,126,5.0,11.0,88,0.00,,,0.00,LWC2 V0.39 B123,2013-03-17 12:14:00,
2013-03-17 06:19:00,39.6,36.3,29.85,East,79,5.0,9.0,88,0.00,,,0.00,LWC2 V0.39 B123,2013-03-17 12:19:00,
2013-03-17 06:24:00,39.7,36.4,29.85,ESE,108,4.0,7.0,88,0.00,,,0.00,LWC2 V0.39 B123,2013-03-17 12:24:00,
2013-03-17 06:29:00,39.7,36.4,29.85,NE,54,9.0,9.0,88,0.00,,,0.00,LWC2 V0.39 B123,2013-03-17 12:29:00,
2013-03-17 06:34:00,39.7,36.4,29.85,North,1,4.0,6.0,88,0.00,,,0.00,LWC2 V0.39 B123,2013-03-17 12:34:00,
2013-03-17 06:39:00,39.6,36.3,29.84,ENE,75,3.0,8.0,88,0.00,,,0.00,LWC2 V0.39 B123,2013-03-17 12:39:00,
2013-03-17 06:44:00,39.6,36.3,29.84,ENE,73,6.0,9.0,88,0.00,,,0.00,LWC2 V0.39 B123,2013-03-17 12:44:00,
2013-03-17 06:49:00,39.6,36.3,29.84,ENE,78,6.0,12.0,88,0.00,,,0.00,LWC2 V0.39 B123,2013-03-17 12:49:00,
2013-03-17 06:54:00,39.6,36.3,29.84,East,79,5.0,9.0,88,0.00,,,0.00,LWC2 V0.39 B123,2013-03-17 12:54:00,
2013-03-17 06:59:00,39.8,36.5,29.84,East,96,4.0,12.0,88,0.00,,,0.00,LWC2 V0.39 B123,2013-03-17 12:59:00,
2013-03-17 07:04:00,40.0,36.7,29.84,East,91,5.0,10.0,88,0.00,,,0.00,LWC2 V0.39 B123,2013-03-17 13:04:00,
2013-03-17 07:09:00,40.1,36.8,29.84,NE,43,6.0,10.0,88,0.00,,,0.00,LWC2 V0.39 B123,2013-03-17 13:09:00,
2013-03-17 07:14:00,40.3,37.0,29.84,ENE,70,6.0,13.0,88,0.00,,,0.00,LWC2 V0.39 B123,2013-03-17 13:14:00,
2013-03-17 07:19:00,40.4,37.1,29.84,East,80,5.0,6.0,88,0.00,,,0.00,LWC2 V0.39 B123,2013-03-17 13:19:00,
2013-03-17 07:24:00,40.4,36.8,29.83,East,94,3.0,7.0,87,0.00,,,0.00,LWC2 V0.39 B123,2013-03-17 13:24:00,
2013-03-17 07:29:00,40.5,36.9,29.84,NE,56,6.0,8.0,87,0.00,,,0.00,LWC2 V0.39 B123,2013-03-17 13:29:00,
2013-03-17 07:34:00,40.6,37.0,29.83,NE,56,5.0,9.0,87,0.00,,,0.00,LWC2 V0.39 B123,2013-03-17 13:34:00,
2013-03-17 07:39:00,40.8,37.2,29.83,ENE,76,3.0,6.0,87,0.00,,,0.00,LWC2 V0.39 B123,2013-03-17 13:39:00,
2013-03-17 07:44:00,40.8,37.2,29.84,ENE,72,7.0,12.0,87,0.00,,,0.00,LWC2 V0.39 B123,2013-03-17 13:44:00,
2013-03-17 07:49:00,40.9,37.3,29.84,ESE,108,5.0,10.0,87,0.00,,,0.00,LWC2 V0.39 B123,2013-03-17 13:49:00,
2013-03-17 07:54:00,41.0,37.4,29.84,East,84,2.0,6.0,87,0.00,,,0.00,LWC2 V0.39 B123,2013-03-17 13:54:00,
2013-03-17 07:59:00,41.0,37.4,29.84,ENE,78,2.0,7.0,87,0.00,,,0.00,LWC2 V0.39 B123,2013-03-17 13:59:00,
2013-03-17 08:04:00,41.1,37.5,29.84,ESE,121,6.0,7.0,87,0.00,,,0.00,LWC2 V0.39 B123,2013-03-17 14:04:00,
2013-03-17 08:09:00,41.1,37.5,29.84,East,84,4.0,7.0,87,0.00,,,0.00,LWC2 V0.39 B123,2013-03-17 14:09:00,
2013-03-17 08:14:00,41.1,37.5,29.84,ENE,72,4.0,7.0,87,0.00,,,0.00,LWC2 V0.39 B123,2013-03-17 14:14:00,
2013-03-17 08:19:00,41.2,37.6,29.84,ENE,75,3.0,5.0,87,0.00,,,0.00,LWC2 V0.39 B123,2013-03-17 14:19:00,
2013-03-17 08:24:00,41.3,37.7,29.83,ENE,78,7.0,13.0,87,0.00,,,0.00,LWC2 V0.39 B123,2013-03-17 14:24:00,
2013-03-17 08:29:00,41.3,37.7,29.84,East,84,2.0,6.0,87,0.00,,,0.00,LWC2 V0.39 B123,2013-03-17 14:29:00,
2013-03-17 08:34:00,41.4,37.8,29.84,ENE,77,2.0,4.0,87,0.00,,,0.00,LWC2 V0.39 B123,2013-03-17 14:34:00,
2013-03-17 08:39:00,41.5,37.9,29.84,ENE,72,4.0,6.0,87,0.00,,,0.00,LWC2 V0.39 B123,2013-03-17 14:39:00,
2013-03-17 08:44:00,41.5,37.9,29.84,ENE,68,3.0,6.0,87,0.00,,,0.00,LWC2 V0.39 B123,2013-03-17 14:44:00,
2013-03-17 08:49:00,41.6,38.3,29.84,ENE,70,2.0,5.0,88,0.00,,,0.00,LWC2 V0.39 B123,2013-03-17 14:49:00,
2013-03-17 08:54:00,41.6,38.3,29.84,ENE,78,2.0,6.0,88,0.00,,,0.00,LWC2 V0.39 B123,2013-03-17 14:54:00,
2013-03-17 08:59:00,41.5,38.2,29.83,NE,50,6.0,8.0,88,0.00,,,0.00,LWC2 V0.39 B123,2013-03-17 14:59:00,
2013-03-17 09:04:00,41.5,38.2,29.83,ENE,73,2.0,5.0,88,0.00,,,0.00,LWC2 V0.39 B123,2013-03-17 15:04:00,
2013-03-17 09:09:00,41.4,38.4,29.83,ENE,65,4.0,7.0,89,0.00,,,0.00,LWC2 V0.39 B123,2013-03-17 15:09:00,
2013-03-17 09:14:00,41.4,38.4,29.85,East,79,2.0,3.0,89,0.00,,,0.00,LWC2 V0.39 B123,2013-03-17 15:14:00,
2013-03-17 09:19:00,41.5,38.5,29.84,ENE,78,3.0,4.0,89,0.00,,,0.00,LWC2 V0.39 B123,2013-03-17 15:19:00,
2013-03-17 09:24:00,41.4,38.7,29.83,ESE,110,4.0,4.0,90,0.00,,,0.00,LWC2 V0.39 B123,2013-03-17 15:24:00,
2013-03-17 09:29:00,41.3,38.6,29.83,ENE,67,3.0,6.0,90,0.00,,,0.00,LWC2 V0.39 B123,2013-03-17 15:29:00,
2013-03-17 09:34:00,41.4,38.7,29.83,ENE,65,2.0,7.0,90,0.00,,,0.00,LWC2 V0.39 B123,2013-03-17 15:34:00,
2013-03-17 09:39:00,41.5,39.1,29.83,ENE,71,2.0,5.0,91,0.00,,,0.00,LWC2 V0.39 B123,2013-03-17 15:39:00,
2013-03-17 09:44:00,41.5,39.1,29.83,NE,53,2.0,6.0,91,0.00,,,0.00,LWC2 V0.39 B123,2013-03-17 15:44:00,
2013-03-17 09:49:00,41.5,39.1,29.82,East,90,3.0,5.0,91,0.00,,,0.00,LWC2 V0.39 B123,2013-03-17 15:49:00,
2013-03-17 09:54:00,41.5,39.1,29.83,ESE,105,3.0,6.0,91,0.00,,,0.00,LWC2 V0.39 B123,2013-03-17 15:54:00,
2013-03-17 09:59:00,41.5,39.1,29.82,ENE,72,2.0,4.0,91,0.00,,,0.00,LWC2 V0.39 B123,2013-03-17 15:59:00,
2013-03-17 10:04:00,41.6,39.2,29.82,ENE,63,5.0,5.0,91,0.00,,,0.00,LWC2 V0.39 B123,2013-03-17 16:04:00,
2013-03-17 10:09:00,41.6,39.2,29.82,ENE,73,4.0,4.0,91,0.00,,,0.00,LWC2 V0.39 B123,2013-03-17 16:09:00,
2013-03-17 10:14:00,41.7,39.5,29.82,ENE,72,2.0,4.0,92,0.00,,,0.00,LWC2 V0.39 B123,2013-03-17 16:14:00,
2013-03-17 10:19:00,41.7,39.5,29.82,East,80,1.0,4.0,92,0.00,,,0.00,LWC2 V0.39 B123,2013-03-17 16:19:00,
2013-03-17 10:24:00,41.8,39.6,29.82,East,101,3.0,3.0,92,0.00,,,0.00,LWC2 V0.39 B123,2013-03-17 16:24:00,
2013-03-17 10:29:00,41.9,39.7,29.82,ENE,70,2.0,3.0,92,0.00,,,0.00,LWC2 V0.39 B123,2013-03-17 16:29:00,
2013-03-17 10:34:00,42.0,39.8,29.81,ENE,60,3.0,5.0,92,0.00,,,0.00,LWC2 V0.39 B123,2013-03-17 16:34:00,
2013-03-17 10:39:00,42.0,39.8,29.81,ENE,70,2.0,3.0,92,0.00,,,0.00,LWC2 V0.39 B123,2013-03-17 16:39:00,
2013-03-17 10:44:00,42.1,39.9,29.81,East,100,3.0,5.0,92,0.00,,,0.00,LWC2 V0.39 B123,2013-03-17 16:44:00,
2013-03-17 10:49:00,42.1,39.9,29.81,ESE,120,5.0,6.0,92,0.00,,,0.00,LWC2 V0.39 B123,2013-03-17 16:49:00,
2013-03-17 10:54:00,42.1,39.9,29.80,East,101,2.0,3.0,92,0.00,,,0.00,LWC2 V0.39 B123,2013-03-17 16:54:00,
2013-03-17 10:59:00,42.2,40.0,29.81,ENE,75,2.0,4.0,92,0.00,,,0.00,LWC2 V0.39 B123,2013-03-17 16:59:00,
2013-03-17 11:04:00,42.2,40.3,29.81,ENE,67,1.0,4.0,93,0.00,,,0.00,LWC2 V0.39 B123,2013-03-17 17:04:00,
2013-03-17 11:09:00,42.2,40.3,29.81,ENE,69,2.0,2.0,93,0.00,,,0.00,LWC2 V0.39 B123,2013-03-17 17:09:00,
2013-03-17 11:14:00,42.4,40.5,29.80,ENE,68,1.0,2.0,93,0.00,,,0.00,LWC2 V0.39 B123,2013-03-17 17:14:00,
2013-03-17 11:19:00,42.5,40.6,29.80,East,80,4.0,5.0,93,0.00,,,0.00,LWC2 V0.39 B123,2013-03-17 17:19:00,
2013-03-17 11:24:00,42.4,40.2,29.81,ENE,60,1.0,3.0,92,0.00,,,0.00,LWC2 V0.39 B123,2013-03-17 17:24:00,
2013-03-17 11:29:00,42.5,40.6,29.81,East,80,2.0,5.0,93,0.00,,,0.00,LWC2 V0.39 B123,2013-03-17 17:29:00,
2013-03-17 11:34:00,42.6,40.4,29.80,NNE,29,4.0,5.0,92,0.00,,,0.00,LWC2 V0.39 B123,2013-03-17 17:34:00,
2013-03-17 11:39:00,42.7,40.5,29.81,NE,44,3.0,6.0,92,0.00,,,0.00,LWC2 V0.39 B123,2013-03-17 17:39:00,
2013-03-17 11:44:00,42.7,40.5,29.81,ENE,68,3.0,6.0,92,0.00,,,0.00,LWC2 V0.39 B123,2013-03-17 17:44:00,
2013-03-17 11:49:00,42.8,40.6,29.80,ENE,63,3.0,4.0,92,0.00,,,0.00,LWC2 V0.39 B123,2013-03-17 17:49:00,
2013-03-17 11:54:00,42.9,40.7,29.80,NNE,32,2.0,3.0,92,0.00,,,0.00,LWC2 V0.39 B123,2013-03-17 17:54:00,
2013-03-17 11:59:00,43.0,40.6,29.80,NE,53,0.0,5.0,91,0.00,,,0.00,LWC2 V0.39 B123,2013-03-17 17:59:00,
2013-03-17 12:04:00,43.1,40.7,29.80,ENE,71,1.0,3.0,91,0.00,,,0.00,LWC2 V0.39 B123,2013-03-17 18:04:00,
2013-03-17 12:09:00,43.1,40.7,29.79,ENE,75,2.0,3.0,91,0.00,,,0.00,LWC2 V0.39 B123,2013-03-17 18:09:00,
2013-03-17 12:15:00,43.2,40.8,29.78,ENE,71,2.0,6.0,91,0.00,,,0.00,LWC2 V0.39 B123,2013-03-17 18:15:00,
2013-03-17 12:20:00,43.1,40.7,29.78,ENE,63,2.0,3.0,91,0.00,,,0.00,LWC2 V0.39 B123,2013-03-17 18:20:00,
2013-03-17 12:25:00,43.1,40.7,29.79,NE,41,0.0,4.0,91,0.00,,,0.00,LWC2 V0.39 B123,2013-03-17 18:25:00,
2013-03-17 12:30:00,43.2,40.8,29.79,ENE,59,2.0,3.0,91,0.00,,,0.00,LWC2 V0.39 B123,2013-03-17 18:30:00,
2013-03-17 12:35:00,43.2,40.8,29.79,East,80,3.0,3.0,91,0.00,,,0.00,LWC2 V0.39 B123,2013-03-17 18:35:00,
2013-03-17 12:40:00,43.2,40.8,29.79,NE,44,3.0,4.0,91,0.00,,,0.00,LWC2 V0.39 B123,2013-03-17 18:40:00,
2013-03-17 12:45:00,43.2,40.8,29.78,ENE,61,3.0,6.0,91,0.00,,,0.00,LWC2 V0.39 B123,2013-03-17 18:45:00,
2013-03-17 12:50:00,43.2,40.8,29.78,NE,40,4.0,4.0,91,0.00,,,0.00,LWC2 V0.39 B123,2013-03-17 18:50:00,
2013-03-17 12:55:00,43.2,40.8,29.78,NE,46,3.0,5.0,91,0.00,,,0.00,LWC2 V0.39 B123,2013-03-17 18:55:00,
2013-03-17 13:00:00,43.1,40.7,29.78,NE,53,0.0,4.0,91,0.00,,,0.00,LWC2 V0.39 B123,2013-03-17 19:00:00,
2013-03-17 13:05:00,43.1,40.7,29.78,NE,50,2.0,4.0,91,0.00,,,0.00,LWC2 V0.39 B123,2013-03-17 19:05:00,
2013-03-17 13:10:00,43.1,40.9,29.78,NNE,27,2.0,2.0,92,0.00,,,0.00,LWC2 V0.39 B123,2013-03-17 19:10:00,
2013-03-17 13:15:00,43.0,40.8,29.77,NNE,20,4.0,4.0,92,0.00,,,0.00,LWC2 V0.39 B123,2013-03-17 19:15:00,
2013-03-17 13:20:00,43.1,40.9,29.77,NE,34,2.0,4.0,92,0.00,,,0.00,LWC2 V0.39 B123,2013-03-17 19:20:00,
2013-03-17 13:25:00,43.0,40.8,29.77,NNE,23,0.0,2.0,92,0.00,,,0.00,LWC2 V0.39 B123,2013-03-17 19:25:00,
2013-03-17 13:30:00,42.9,40.7,29.77,NE,46,2.0,4.0,92,0.00,,,0.00,LWC2 V0.39 B123,2013-03-17 19:30:00,
2013-03-17 13:35:00,42.7,40.8,29.76,NE,52,3.0,5.0,93,0.00,,,0.00,LWC2 V0.39 B123,2013-03-17 19:35:00,
2013-03-17 13:40:00,42.6,40.7,29.76,NNE,16,2.0,4.0,93,0.00,,,0.00,LWC2 V0.39 B123,2013-03-17 19:40:00,
2013-03-17 13:45:00,42.6,40.7,29.75,NNE,25,2.0,4.0,93,0.00,,,0.00,LWC2 V0.39 B123,2013-03-17 19:45:00,
2013-03-17 13:50:00,42.7,41.1,29.76,NE,34,1.0,2.0,94,0.00,,,0.00,LWC2 V0.39 B123,2013-03-17 19:50:00,
2013-03-17 13:55:00,42.7,41.1,29.75,North,356,2.0,2.0,94,0.00,,,0.00,LWC2 V0.39 B123,2013-03-17 19:55:00,
2013-03-17 14:00:00,42.6,41.0,29.76,North,1,0.0,2.0,94,0.00,,,0.00,LWC2 V0.39 B123,2013-03-17 20:00:00,
2013-03-17 14:05:00,42.6,41.0,29.75,NE,38,1.0,4.0,94,0.00,,,0.00,LWC2 V0.39 B123,2013-03-17 20:05:00,
2013-03-17 14:10:00,42.6,41.0,29.75,NE,52,1.0,2.0,94,0.00,,,0.00,LWC2 V0.39 B123,2013-03-17 20:10:00,
2013-03-17 14:15:00,42.6,41.0,29.75,NNE,26,3.0,3.0,94,0.00,,,0.00,LWC2 V0.39 B123,2013-03-17 20:15:00,
2013-03-17 14:20:00,42.6,41.0,29.74,NNE,29,1.0,2.0,94,0.00,,,0.00,LWC2 V0.39 B123,2013-03-17 20:20:00,
2013-03-17 14:25:00,42.7,41.1,29.74,NNE,32,3.0,4.0,94,0.00,,,0.00,LWC2 V0.39 B123,2013-03-17 20:25:00,
2013-03-17 14:30:00,42.8,41.2,29.74,NE,41,1.0,2.0,94,0.00,,,0.00,LWC2 V0.39 B123,2013-03-17 20:30:00,
2013-03-17 14:35:00,42.7,41.1,29.74,NNE,18,2.0,4.0,94,0.00,,,0.00,LWC2 V0.39 B123,2013-03-17 20:35:00,
2013-03-17 14:40:00,42.9,41.3,29.74,NE,34,1.0,2.0,94,0.00,,,0.00,LWC2 V0.39 B123,2013-03-17 20:40:00,
2013-03-17 14:45:00,42.8,41.2,29.74,NE,41,1.0,1.0,94,0.00,,,0.00,LWC2 V0.39 B123,2013-03-17 20:45:00,
2013-03-17 14:50:00,42.9,41.3,29.73,NE,44,1.0,4.0,94,0.00,,,0.00,LWC2 V0.39 B123,2013-03-17 20:50:00,
2013-03-17 14:55:00,42.9,41.3,29.74,NNE,16,1.0,5.0,94,0.00,,,0.00,LWC2 V0.39 B123,2013-03-17 20:55:00,
2013-03-17 15:00:00,42.9,41.3,29.73,NNE,32,2.0,4.0,94,0.00,,,0.00,LWC2 V0.39 B123,2013-03-17 21:00:00,
2013-03-17 15:05:00,42.9,41.3,29.73,NE,37,1.0,2.0,94,0.00,,,0.00,LWC2 V0.39 B123,2013-03-17 21:05:00,
2013-03-17 15:10:00,43.0,41.4,29.73,NNE,32,1.0,1.0,94,0.00,,,0.00,LWC2 V0.39 B123,2013-03-17 21:10:00,
2013-03-17 15:15:00,43.0,41.4,29.73,NE,50,0.0,1.0,94,0.00,,,0.00,LWC2 V0.39 B123,2013-03-17 21:15:00,
2013-03-17 15:20:00,43.1,41.5,29.73,NNE,12,4.0,4.0,94,0.00,,,0.00,LWC2 V0.39 B123,2013-03-17 21:20:00,
2013-03-17 15:25:00,42.9,41.3,29.73,North,1,4.0,5.0,94,0.00,,,0.00,LWC2 V0.39 B123,2013-03-17 21:25:00,
2013-03-17 15:30:00,43.0,41.4,29.73,NE,37,1.0,1.0,94,0.00,,,0.00,LWC2 V0.39 B123,2013-03-17 21:30:00,
2013-03-17 15:35:00,42.9,41.0,29.73,NNE,29,4.0,5.0,93,0.00,,,0.00,LWC2 V0.39 B123,2013-03-17 21:35:00,
2013-03-17 15:40:00,43.0,41.1,29.73,NE,43,2.0,4.0,93,0.00,,,0.00,LWC2 V0.39 B123,2013-03-17 21:40:00,
2013-03-17 15:45:00,43.1,41.2,29.73,NNE,15,3.0,5.0,93,0.00,,,0.00,LWC2 V0.39 B123,2013-03-17 21:45:00,
2013-03-17 15:50:00,43.1,41.2,29.72,NE,53,1.0,4.0,93,0.00,,,0.00,LWC2 V0.39 B123,2013-03-17 21:50:00,
2013-03-17 15:55:00,43.3,41.4,29.72,NE,50,2.0,2.0,93,0.00,,,0.00,LWC2 V0.39 B123,2013-03-17 21:55:00,
2013-03-17 16:00:00,43.4,41.5,29.72,East,81,1.0,2.0,93,0.00,,,0.00,LWC2 V0.39 B123,2013-03-17 22:00:00,
2013-03-17 16:05:00,43.6,41.7,29.72,NNE,32,2.0,3.0,93,0.00,,,0.00,LWC2 V0.39 B123,2013-03-17 22:05:00,
2013-03-17 16:10:00,43.8,41.6,29.72,NNE,12,2.0,3.0,92,0.00,,,0.00,LWC2 V0.39 B123,2013-03-17 22:10:00,
2013-03-17 16:15:00,43.9,41.4,29.72,NE,55,2.0,3.0,91,0.00,,,0.00,LWC2 V0.39 B123,2013-03-17 22:15:00,
2013-03-17 16:20:00,43.8,41.1,29.72,NNE,26,0.0,4.0,90,0.00,,,0.00,LWC2 V0.39 B123,2013-03-17 22:20:00,
2013-03-17 16:25:00,43.9,41.2,29.72,NE,41,2.0,3.0,90,0.00,,,0.00,LWC2 V0.39 B123,2013-03-17 22:25:00,
2013-03-17 16:30:00,44.0,41.3,29.72,NNE,16,2.0,5.0,90,0.00,,,0.00,LWC2 V0.39 B123,2013-03-17 22:30:00,
2013-03-17 16:35:00,44.0,41.5,29.71,ENE,70,1.0,3.0,91,0.00,,,0.00,LWC2 V0.39 B123,2013-03-17 22:35:00,
2013-03-17 16:40:00,43.9,41.4,29.71,NE,37,1.0,4.0,91,0.00,,,0.00,LWC2 V0.39 B123,2013-03-17 22:40:00,
2013-03-17 16:45:00,43.9,41.4,29.72,NE,49,1.0,4.0,91,0.00,,,0.00,LWC2 V0.39 B123,2013-03-17 22:45:00,
2013-03-17 16:50:00,43.8,41.1,29.72,NNE,16,0.0,3.0,90,0.00,,,0.00,LWC2 V0.39 B123,2013-03-17 22:50:00,
2013-03-17 16:55:00,43.8,41.1,29.73,NE,34,1.0,4.0,90,0.00,,,0.00,LWC2 V0.39 B123,2013-03-17 22:55:00,
2013-03-17 17:00:00,43.9,41.4,29.72,ENE,57,1.0,3.0,91,0.00,,,0.00,LWC2 V0.39 B123,2013-03-17 23:00:00,
2013-03-17 17:05:00,43.8,41.3,29.72,NNE,22,1.0,4.0,91,0.00,,,0.00,LWC2 V0.39 B123,2013-03-17 23:05:00,
2013-03-17 17:10:00,43.7,41.2,29.72,NE,37,1.0,2.0,91,0.00,,,0.00,LWC2 V0.39 B123,2013-03-17 23:10:00,
2013-03-17 17:15:00,43.7,41.2,29.72,NNE,16,1.0,3.0,91,0.00,,,0.00,LWC2 V0.39 B123,2013-03-17 23:15:00,
2013-03-17 17:20:00,43.7,41.2,29.72,NNE,33,1.0,1.0,91,0.00,,,0.00,LWC2 V0.39 B123,2013-03-17 23:20:00,
2013-03-17 17:25:00,43.7,41.2,29.72,NE,42,0.0,4.0,91,0.00,,,0.00,LWC2 V0.39 B123,2013-03-17 23:25:00,
2013-03-17 17:30:00,43.6,41.1,29.72,NE,41,1.0,2.0,91,0.00,,,0.00,LWC2 V0.39 B123,2013-03-17 23:30:00,
2013-03-17 17:35:00,43.6,41.1,29.71,NE,41,0.0,1.0,91,0.00,,,0.00,LWC2 V0.39 B123,2013-03-17 23:35:00,
2013-03-17 17:40:00,43.7,41.5,29.72,NE,41,1.0,1.0,92,0.00,,,0.00,LWC2 V0.39 B123,2013-03-17 23:40:00,
2013-03-17 17:45:00,43.6,41.4,29.72,NE,41,0.0,1.0,92,0.00,,,0.00,LWC2 V0.39 B123,2013-03-17 23:45:00,
2013-03-17 17:50:00,43.5,41.0,29.72,NE,40,2.0,2.0,91,0.00,,,0.00,LWC2 V0.39 B123,2013-03-17 23:50:00,
2013-03-17 17:55:00,43.5,41.0,29.73,North,4,0.0,2.0,91,0.00,,,0.00,LWC2 V0.39 B123,2013-03-17 23:55:00,
2013-03-17 18:00:00,43.4,41.2,29.73,NE,36,0.0,2.0,92,0.00,,,0.00,LWC2 V0.39 B123,2013-03-18 00:00:00,
2013-03-17 18:05:00,43.3,41.1,29.73,NE,39,0.0,1.0,92,0.00,,,0.00,LWC2 V0.39 B123,2013-03-18 00:05:00,
2013-03-17 18:10:00,43.2,41.0,29.72,NE,39,0.0,1.0,92,0.00,,,0.00,LWC2 V0.39 B123,2013-03-18 00:10:00,
2013-03-17 18:15:00,43.2,41.0,29.72,NE,39,0.0,0.0,92,0.00,,,0.00,LWC2 V0.39 B123,2013-03-18 00:15:00,
2013-03-17 18:20:00,43.2,41.0,29.71,ENE,65,0.0,0.0,92,0.00,,,0.00,LWC2 V0.39 B123,2013-03-18 00:20:00,
2013-03-17 18:25:00,43.2,41.0,29.70,ESE,112,0.0,2.0,92,0.00,,,0.00,LWC2 V0.39 B123,2013-03-18 00:25:00,
2013-03-17 18:30:00,43.2,41.0,29.70,East,89,0.0,0.0,92,0.00,,,0.00,LWC2 V0.39 B123,2013-03-18 00:30:00,
2013-03-17 18:35:00,43.2,41.0,29.70,East,89,0.0,1.0,92,0.00,,,0.00,LWC2 V0.39 B123,2013-03-18 00:35:00,
2013-03-17 18:40:00,43.2,41.0,29.72,East,85,0.0,0.0,92,0.00,,,0.00,LWC2 V0.39 B123,2013-03-18 00:40:00,
2013-03-17 18:45:00,43.2,41.0,29.72,East,85,0.0,0.0,92,0.00,,,0.00,LWC2 V0.39 B123,2013-03-18 00:45:00,
2013-03-17 18:50:00,43.2,41.0,29.72,East,85,0.0,0.0,92,0.00,,,0.00,LWC2 V0.39 B123,2013-03-18 00:50:00,
2013-03-17 18:55:00,43.2,41.0,29.72,East,85,0.0,0.0,92,0.00,,,0.00,LWC2 V0.39 B123,2013-03-18 00:55:00,
2013-03-17 19:00:00,43.3,41.1,29.72,ENE,59,0.0,0.0,92,0.00,,,0.00,LWC2 V0.39 B123,2013-03-18 01:00:00,
2013-03-17 19:05:00,43.3,41.1,29.72,NE,50,0.0,0.0,92,0.00,,,0.00,LWC2 V0.39 B123,2013-03-18 01:05:00,
2013-03-17 19:10:00,43.2,41.0,29.71,NE,50,0.0,0.0,92,0.00,,,0.00,LWC2 V0.39 B123,2013-03-18 01:10:00,
2013-03-17 19:15:00,43.3,41.1,29.72,NE,49,0.0,0.0,92,0.00,,,0.00,LWC2 V0.39 B123,2013-03-18 01:15:00,
2013-03-17 19:20:00,43.3,41.1,29.72,NE,50,0.0,0.0,92,0.00,,,0.00,LWC2 V0.39 B123,2013-03-18 01:20:00,
2013-03-17 19:25:00,43.3,41.1,29.72,NE,50,0.0,0.0,92,0.00,,,0.00,LWC2 V0.39 B123,2013-03-18 01:25:00,
2013-03-17 19:30:00,43.3,41.1,29.73,NE,50,0.0,0.0,92,0.00,,,0.00,LWC2 V0.39 B123,2013-03-18 01:30:00,
2013-03-17 19:35:00,43.3,41.1,29.73,NE,48,0.0,0.0,92,0.00,,,0.00,LWC2 V0.39 B123,2013-03-18 01:35:00,
2013-03-17 19:40:00,43.3,41.1,29.73,NE,46,0.0,0.0,92,0.00,,,0.00,LWC2 V0.39 B123,2013-03-18 01:40:00,
2013-03-17 19:45:00,43.3,41.1,29.73,NE,46,0.0,0.0,92,0.00,,,0.00,LWC2 V0.39 B123,2013-03-18 01:45:00,
2013-03-17 19:50:00,43.3,41.4,29.74,NE,46,0.0,0.0,93,0.00,,,0.00,LWC2 V0.39 B123,2013-03-18 01:50:00,
2013-03-17 19:55:00,43.3,41.4,29.74,NE,46,0.0,0.0,93,0.00,,,0.00,LWC2 V0.39 B123,2013-03-18 01:55:00,
2013-03-17 20:00:00,43.3,41.4,29.75,NW,316,0.0,0.0,93,0.00,,,0.00,LWC2 V0.39 B123,2013-03-18 02:00:00,
2013-03-17 20:05:00,43.3,41.4,29.74,NW,316,0.0,0.0,93,0.00,,,0.00,LWC2 V0.39 B123,2013-03-18 02:05:00,
2013-03-17 20:10:00,43.3,41.4,29.74,WSW,246,0.0,1.0,93,0.00,,,0.00,LWC2 V0.39 B123,2013-03-18 02:10:00,
2013-03-17 20:15:00,43.3,41.4,29.74,WSW,245,0.0,1.0,93,0.00,,,0.00,LWC2 V0.39 B123,2013-03-18 02:15:00,
2013-03-17 20:20:00,43.2,41.3,29.73,WSW,243,0.0,1.0,93,0.00,,,0.00,LWC2 V0.39 B123,2013-03-18 02:20:00,
2013-03-17 20:25:00,43.3,41.4,29.73,WSW,246,0.0,0.0,93,0.00,,,0.00,LWC2 V0.39 B123,2013-03-18 02:25:00,
2013-03-17 20:30:00,43.2,41.3,29.74,WNW,288,0.0,0.0,93,0.00,,,0.00,LWC2 V0.39 B123,2013-03-18 02:30:00,
2013-03-17 20:35:00,43.3,41.4,29.73,WNW,288,0.0,0.0,93,0.00,,,0.00,LWC2 V0.39 B123,2013-03-18 02:35:00,
2013-03-17 20:40:00,43.3,41.4,29.73,WNW,287,0.0,0.0,93,0.00,,,0.00,LWC2 V0.39 B123,2013-03-18 02:40:00,
2013-03-17 20:45:00,43.3,41.4,29.74,WNW,288,0.0,0.0,93,0.00,,,0.00,LWC2 V0.39 B123,2013-03-18 02:45:00,
2013-03-17 20:50:00,43.3,41.4,29.74,WNW,287,0.0,0.0,93,0.00,,,0.00,LWC2 V0.39 B123,2013-03-18 02:50:00,
2013-03-17 20:55:00,43.3,41.4,29.74,WNW,287,1.0,1.0,93,0.00,,,0.00,LWC2 V0.39 B123,2013-03-18 02:55:00,
2013-03-17 21:00:00,43.3,41.4,29.75,NW,322,0.0,0.0,93,0.00,,,0.00,LWC2 V0.39 B123,2013-03-18 03:00:00,
2013-03-17 21:05:00,43.3,41.4,29.75,NW,314,0.0,1.0,93,0.00,,,0.00,LWC2 V0.39 B123,2013-03-18 03:05:00,
2013-03-17 21:10:00,43.3,41.4,29.74,NW,314,0.0,0.0,93,0.00,,,0.00,LWC2 V0.39 B123,2013-03-18 03:10:00,
2013-03-17 21:15:00,43.3,41.7,29.76,NW,321,1.0,2.0,94,0.00,,,0.00,LWC2 V0.39 B123,2013-03-18 03:15:00,
2013-03-17 21:20:00,43.4,41.8,29.76,NW,309,1.0,2.0,94,0.00,,,0.00,LWC2 V0.39 B123,2013-03-18 03:20:00,
2013-03-17 21:25:00,43.3,41.7,29.76,NW,321,3.0,4.0,94,0.00,,,0.00,LWC2 V0.39 B123,2013-03-18 03:25:00,
2013-03-17 21:30:00,43.4,41.8,29.77,WNW,302,2.0,2.0,94,0.00,,,0.00,LWC2 V0.39 B123,2013-03-18 03:30:00,
2013-03-17 21:35:00,43.4,41.8,29.76,WNW,298,2.0,3.0,94,0.00,,,0.00,LWC2 V0.39 B123,2013-03-18 03:35:00,
2013-03-17 21:40:00,43.3,41.7,29.75,WNW,302,2.0,2.0,94,0.00,,,0.00,LWC2 V0.39 B123,2013-03-18 03:40:00,
2013-03-17 21:45:00,43.3,41.7,29.75,NW,323,0.0,2.0,94,0.00,,,0.00,LWC2 V0.39 B123,2013-03-18 03:45:00,
2013-03-17 21:50:00,43.3,41.7,29.75,NNE,23,0.0,1.0,94,0.00,,,0.00,LWC2 V0.39 B123,2013-03-18 03:50:00,
2013-03-17 21:55:00,43.4,41.8,29.74,NNE,25,0.0,1.0,94,0.00,,,0.00,LWC2 V0.39 B123,2013-03-18 03:55:00,
2013-03-17 22:00:00,43.4,41.8,29.74,NW,321,1.0,1.0,94,0.00,,,0.00,LWC2 V0.39 B123,2013-03-18 04:00:00,
2013-03-17 22:01:00,43.4,41.8,29.75,NW,314,2.0,2.0,94,0.00,,,0.00,LWC2 V0.39 B123,2013-03-18 04:01:00,
2013-03-17 22:02:00,43.3,41.7,29.75,NW,324,1.0,2.0,94,0.00,,,0.00,LWC2 V0.39 B123,2013-03-18 04:02:00,
2013-03-17 22:07:00,43.3,41.7,29.75,NW,325,1.0,1.0,94,0.00,,,0.00,LWC2 V0.39 B123,2013-03-18 04:07:00,
2013-03-17 22:12:00,43.3,41.7,29.75,ENE,68,0.0,2.0,94,0.00,,,0.00,LWC2 V0.39 B123,2013-03-18 04:12:00,
2013-03-17 22:16:00,43.2,41.6,29.75,NNE,22,0.0,2.0,94,0.00,,,0.00,LWC2 V0.39 B123,2013-03-18 04:16:00,
2013-03-17 22:21:00,43.2,41.6,29.74,NNE,16,0.0,2.0,94,0.00,,,0.00,LWC2 V0.39 B123,2013-03-18 04:21:00,
2013-03-17 22:26:00,43.1,41.5,29.73,NNE,15,0.0,0.0,94,0.00,,,0.00,LWC2 V0.39 B123,2013-03-18 04:26:00,
2013-03-17 22:32:00,43.1,41.5,29.73,NNE,15,0.0,0.0,94,0.00,,,0.00,LWC2 V0.39 B123,2013-03-18 04:32:00,
2013-03-17 22:37:00,43.2,41.9,29.74,NNE,14,0.0,0.0,95,0.00,,,0.00,LWC2 V0.39 B123,2013-03-18 04:37:00,
2013-03-17 22:43:00,43.1,41.8,29.74,NW,323,0.0,0.0,95,0.00,,,0.00,LWC2 V0.39 B123,2013-03-18 04:43:00,
2013-03-17 22:48:00,43.2,41.9,29.74,NW,323,0.0,0.0,95,0.00,,,0.00,LWC2 V0.39 B123,2013-03-18 04:48:00,
2013-03-17 22:53:00,43.2,41.9,29.74,NW,321,0.0,0.0,95,0.00,,,0.00,LWC2 V0.39 B123,2013-03-18 04:53:00,
2013-03-17 22:58:00,43.1,41.8,29.73,SW,221,0.0,0.0,95,0.00,,,0.00,LWC2 V0.39 B123,2013-03-18 04:58:00,
2013-03-17 23:03:00,43.1,41.8,29.73,SW,224,0.0,0.0,95,0.00,,,0.00,LWC2 V0.39 B123,2013-03-18 05:03:00,
2013-03-17 23:08:00,43.1,41.8,29.73,SW,224,0.0,0.0,95,0.00,,,0.00,LWC2 V0.39 B123,2013-03-18 05:08:00,
2013-03-17 23:13:00,43.2,41.9,29.71,ESE,114,1.0,2.0,95,0.00,,,0.00,LWC2 V0.39 B123,2013-03-18 05:13:00,
2013-03-17 23:18:00,43.1,41.8,29.71,ESE,117,1.0,2.0,95,0.00,,,0.00,LWC2 V0.39 B123,2013-03-18 05:18:00,
2013-03-17 23:23:00,43.0,41.7,29.70,SE,128,1.0,2.0,95,0.00,,,0.00,LWC2 V0.39 B123,2013-03-18 05:23:00,
2013-03-17 23:28:00,43.0,41.7,29.69,ESE,110,1.0,1.0,95,0.00,,,0.00,LWC2 V0.39 B123,2013-03-18 05:28:00,
2013-03-17 23:33:00,42.9,41.6,29.70,NNE,31,0.0,0.0,95,0.00,,,0.00,LWC2 V0.39 B123,2013-03-18 05:33:00,
2013-03-17 23:38:00,43.0,41.7,29.72,NNE,29,0.0,0.0,95,0.00,,,0.00,LWC2 V0.39 B123,2013-03-18 05:38:00,
2013-03-17 23:43:00,43.1,41.8,29.72,NNE,24,0.0,0.0,95,0.00,,,0.00,LWC2 V0.39 B123,2013-03-18 05:43:00,
2013-03-17 23:48:00,43.0,41.7,29.73,NNE,30,1.0,2.0,95,0.00,,,0.00,LWC2 V0.39 B123,2013-03-18 05:48:00,
2013-03-17 23:53:00,43.0,41.7,29.73,NNE,30,0.0,0.0,95,0.00,,,0.00,LWC2 V0.39 B123,2013-03-18 05:53:00,
2013-03-17 23:58:00,43.0,41.7,29.73,NNE,25,1.0,2.0,95,0.00,,,0.00,LWC2 V0.39 B123,2013-03-18 05:58:00,